| time (UTC) | temp F | wind direction | speed MPH | gust MPH | rain 1hr in | rain 24hr in | rain mn in | humidity % | barometer mb |
| 20260502164030 | 57 | 291 | 2.0 | 5.0 | 0.00 | 0.00 | 0.00 | 78 | 1013.1 |
| 20260502163021 | 57 | 224 | 3.0 | 5.0 | 0.00 | 0.00 | 0.00 | 79 | 1013.1 |
| 20260502162029 | 55 | 260 | 4.0 | 5.0 | 0.00 | 0.00 | 0.00 | 82 | 1013.1 |
| 20260502161035 | 54 | 241 | 4.0 | 6.0 | 0.00 | 0.00 | 0.00 | 83 | 1013.1 |
| 20260502152021 | 51 | 257 | 3.0 | 5.0 | 0.00 | 0.00 | 0.00 | 89 | 1013.1 |
| 20260502151210 | 51 | 266 | 3.0 | 4.0 | 0.00 | 0.00 | 0.00 | 89 | 1013.1 |
| 20260502123025 | 49 | 237 | 4.0 | 6.0 | 0.00 | 0.00 | 0.00 | 91 | 1013.1 |
| 20260502122033 | 49 | 235 | 4.0 | 6.0 | 0.00 | 0.00 | 0.00 | 91 | 1012.1 |
| 20260502121022 | 49 | 226 | 4.0 | 7.0 | 0.00 | 0.00 | 0.00 | 91 | 1012.1 |
| 20260502115021 | 49 | 215 | 3.0 | 4.0 | 0.00 | 0.00 | 0.00 | 92 | 1012.1 |
| 20260502114021 | 49 | 230 | 4.0 | 5.0 | 0.00 | 0.00 | 0.00 | 92 | 1012.1 |
| 20260502113035 | 49 | 222 | 4.0 | 5.0 | 0.00 | 0.00 | 0.00 | 92 | 1012.1 |
| 20260502112025 | 49 | 194 | 3.0 | 4.0 | 0.00 | 0.00 | 0.00 | 92 | 1012.2 |
| 20260502111033 | 49 | 175 | 2.0 | 3.0 | 0.00 | 0.00 | 0.00 | 93 | 1012.2 |
| 20260502110022 | 48 | 265 | 1.0 | 2.0 | 0.00 | 0.00 | 0.00 | 93 | 1012.2 |
| 20260502105030 | 49 | 0.0 | 0.0 | 0.00 | 0.00 | 0.00 | 92 | 1012.2 | |
| 20260502104024 | 49 | 250 | 1.0 | 3.0 | 0.00 | 0.00 | 0.00 | 91 | 1012.2 |
| 20260502103028 | 50 | 224 | 2.0 | 3.0 | 0.00 | 0.00 | 0.00 | 90 | 1012.2 |
| 20260502102037 | 50 | 204 | 1.0 | 2.0 | 0.00 | 0.00 | 0.00 | 90 | 1012.2 |
| 20260502101025 | 50 | 203 | 2.0 | 4.0 | 0.00 | 0.00 | 0.00 | 90 | 1012.2 |
| 20260502091037 | 51 | 232 | 4.0 | 6.0 | 0.00 | 0.00 | 0.00 | 89 | 1013.0 |
| 20260502071021 | 52 | 214 | 6.0 | 9.0 | 0.00 | 0.00 | 0.00 | 86 | 1013.1 |
| 20260502070029 | 52 | 236 | 8.0 | 12.0 | 0.00 | 0.00 | 0.00 | 86 | 1013.1 |
| 20260502065035 | 52 | 226 | 7.0 | 10.0 | 0.00 | 0.00 | 0.00 | 86 | 1013.1 |
| 20260502064025 | 52 | 223 | 8.0 | 11.0 | 0.00 | 0.00 | 0.00 | 86 | 1013.1 |
| 20260502063033 | 52 | 207 | 6.0 | 7.0 | 0.00 | 0.00 | 0.00 | 86 | 1013.1 |
| 20260502062022 | 52 | 232 | 6.0 | 8.0 | 0.00 | 0.00 | 0.00 | 86 | 1013.1 |
| 20260502061049 | 52 | 218 | 8.0 | 10.0 | 0.00 | 0.00 | 0.00 | 86 | 1013.1 |
| 20260502060021 | 53 | 223 | 5.0 | 7.0 | 0.00 | 0.00 | 0.00 | 86 | 1013.1 |
| 20260502055026 | 53 | 213 | 7.0 | 10.0 | 0.00 | 0.00 | 0.00 | 85 | 1013.1 |
| 20260502054025 | 53 | 213 | 7.0 | 10.0 | 0.00 | 0.00 | 0.00 | 85 | 1013.1 |
| 20260502053024 | 53 | 208 | 8.0 | 11.0 | 0.00 | 0.00 | 0.00 | 85 | 1013.1 |
| 20260502052032 | 53 | 218 | 8.0 | 10.0 | 0.00 | 0.00 | 0.00 | 85 | 1013.1 |
| 20260502051040 | 53 | 217 | 8.0 | 11.0 | 0.00 | 0.00 | 0.00 | 85 | 1013.1 |
| 20260502050029 | 53 | 229 | 8.0 | 10.0 | 0.00 | 0.00 | 0.00 | 85 | 1013.1 |
| 20260502045117 | 53 | 233 | 7.0 | 9.0 | 0.00 | 0.00 | 0.00 | 85 | 1013.1 |
| 20260502044026 | 54 | 220 | 7.0 | 9.0 | 0.00 | 0.00 | 0.00 | 84 | 1013.1 |
| 20260502043054 | 54 | 206 | 8.0 | 12.0 | 0.00 | 0.00 | 0.00 | 84 | 1013.1 |
| 20260502042024 | 54 | 215 | 6.0 | 11.0 | 0.00 | 0.00 | 0.00 | 83 | 1013.1 |
| 20260502041031 | 54 | 213 | 9.0 | 11.0 | 0.00 | 0.00 | 0.00 | 83 | 1012.3 |
| 20260502040021 | 54 | 220 | 10.0 | 13.0 | 0.00 | 0.00 | 0.00 | 83 | 1012.1 |
| 20260502035028 | 55 | 208 | 10.0 | 13.0 | 0.00 | 0.00 | 0.00 | 83 | 1012.1 |
| 20260502034027 | 55 | 219 | 10.0 | 13.0 | 0.00 | 0.00 | 0.00 | 82 | 1012.1 |
| 20260502033045 | 55 | 207 | 10.0 | 13.0 | 0.00 | 0.00 | 0.00 | 82 | 1012.1 |
| 20260502032054 | 55 | 202 | 11.0 | 13.0 | 0.00 | 0.00 | 0.00 | 82 | 1012.1 |
| 20260502031023 | 56 | 217 | 9.0 | 13.0 | 0.00 | 0.00 | 0.00 | 81 | 1012.1 |
| 20260502030051 | 56 | 232 | 8.0 | 10.0 | 0.00 | 0.00 | 0.00 | 80 | 1012.1 |
| 20260502025021 | 57 | 233 | 8.0 | 11.0 | 0.00 | 0.00 | 0.00 | 78 | 1012.1 |
| 20260502024028 | 58 | 239 | 11.0 | 16.0 | 0.00 | 0.00 | 0.00 | 77 | 1011.3 |
| 20260502023037 | 58 | 206 | 12.0 | 17.0 | 0.00 | 0.00 | 0.00 | 76 | 1011.1 |
| 20260502022024 | 59 | 224 | 12.0 | 18.0 | 0.00 | 0.00 | 0.00 | 75 | 1011.1 |
| 20260502021052 | 59 | 221 | 13.0 | 18.0 | 0.00 | 0.00 | 0.00 | 74 | 1011.1 |
| 20260502020041 | 60 | 223 | 12.0 | 15.0 | 0.00 | 0.00 | 0.00 | 73 | 1011.1 |
| 20260502015029 | 61 | 213 | 12.0 | 17.0 | 0.00 | 0.00 | 0.00 | 72 | 1011.1 |
| 20260502014029 | 62 | 212 | 11.0 | 16.0 | 0.00 | 0.00 | 0.00 | 70 | 1011.1 |
| 20260502013021 | 63 | 221 | 10.0 | 12.0 | 0.00 | 0.00 | 0.00 | 69 | 1011.1 |
| 20260502012033 | 64 | 218 | 11.0 | 15.0 | 0.00 | 0.00 | 0.00 | 68 | 1011.1 |
| 20260502011022 | 64 | 230 | 13.0 | 17.0 | 0.00 | 0.00 | 0.00 | 67 | 1011.1 |
| 20260502010030 | 65 | 224 | 9.0 | 13.0 | 0.00 | 0.00 | 0.00 | 66 | 1011.1 |
| 20260502005022 | 66 | 233 | 10.0 | 16.0 | 0.00 | 0.00 | 0.00 | 66 | 1011.1 |
| 20260502004031 | 66 | 229 | 12.0 | 13.0 | 0.00 | 0.00 | 0.00 | 65 | 1011.1 |
| 20260502003021 | 67 | 224 | 9.0 | 12.0 | 0.00 | 0.00 | 0.00 | 63 | 1011.1 |
| 20260502002024 | 68 | 231 | 8.0 | 12.0 | 0.00 | 0.00 | 0.00 | 62 | 1011.1 |
| 20260502001032 | 69 | 233 | 10.0 | 15.0 | 0.00 | 0.00 | 0.00 | 60 | 1011.2 |
| 20260502000022 | 70 | 241 | 11.0 | 15.0 | 0.00 | 0.00 | 0.00 | 59 | 1011.2 |
| 20260501235030 | 71 | 229 | 11.0 | 15.0 | 0.00 | 0.00 | 0.00 | 57 | 1011.2 |
| 20260501234021 | 72 | 240 | 10.0 | 15.0 | 0.00 | 0.00 | 0.00 | 57 | 1011.2 |
| 20260501233021 | 72 | 238 | 9.0 | 13.0 | 0.00 | 0.00 | 0.00 | 54 | 1011.2 |
| 20260501232034 | 73 | 223 | 8.0 | 10.0 | 0.00 | 0.00 | 0.00 | 56 | 1011.2 |
| 20260501231023 | 73 | 231 | 12.0 | 15.0 | 0.00 | 0.00 | 0.00 | 54 | 1011.2 |
| 20260501230031 | 75 | 237 | 8.0 | 12.0 | 0.00 | 0.00 | 0.00 | 53 | 1011.2 |
| 20260501225021 | 74 | 203 | 4.0 | 7.0 | 0.00 | 0.00 | 0.00 | 53 | 1012.2 |
| 20260501224028 | 73 | 186 | 5.0 | 8.0 | 0.00 | 0.00 | 0.00 | 54 | 1012.2 |
| 20260501223022 | 74 | 232 | 8.0 | 11.0 | 0.00 | 0.00 | 0.00 | 52 | 1012.2 |
| 20260501222025 | 75 | 186 | 4.0 | 6.0 | 0.00 | 0.00 | 0.00 | 50 | 1012.2 |
| 20260501221054 | 75 | 136 | 3.0 | 4.0 | 0.00 | 0.00 | 0.00 | 49 | 1012.2 |
| 20260501220023 | 75 | 228 | 5.0 | 6.0 | 0.00 | 0.00 | 0.00 | 50 | 1012.2 |
| 20260501215031 | 73 | 152 | 3.0 | 6.0 | 0.00 | 0.00 | 0.00 | 55 | 1012.2 |
| 20260501214021 | 72 | 70 | 3.0 | 5.0 | 0.00 | 0.00 | 0.00 | 55 | 1012.2 |
| 20260501213043 | 73 | 50 | 4.0 | 6.0 | 0.00 | 0.00 | 0.00 | 55 | 1012.2 |
| 20260501212037 | 73 | 143 | 4.0 | 5.0 | 0.00 | 0.00 | 0.00 | 52 | 1012.2 |
| 20260501211026 | 72 | 107 | 3.0 | 5.0 | 0.00 | 0.00 | 0.00 | 54 | 1013.0 |
| 20260501210053 | 72 | 331 | 3.0 | 6.0 | 0.00 | 0.00 | 0.00 | 55 | 1013.2 |
| 20260501205103 | 71 | 81 | 4.0 | 6.0 | 0.00 | 0.00 | 0.00 | 57 | 1013.2 |
| 20260501204030 | 71 | 168 | 4.0 | 7.0 | 0.00 | 0.00 | 0.00 | 56 | 1013.2 |
| 20260501203020 | 71 | 71 | 4.0 | 6.0 | 0.00 | 0.00 | 0.00 | 57 | 1013.2 |
| 20260501202029 | 70 | 161 | 5.0 | 8.0 | 0.00 | 0.00 | 0.00 | 57 | 1013.2 |
| 20260501201038 | 70 | 154 | 2.0 | 5.0 | 0.00 | 0.00 | 0.00 | 58 | 1013.2 |
| 20260501200026 | 69 | 187 | 4.0 | 8.0 | 0.00 | 0.00 | 0.00 | 60 | 1013.2 |
| 20260501195034 | 69 | 164 | 5.0 | 9.0 | 0.00 | 0.00 | 0.00 | 60 | 1014.2 |
| 20260501194023 | 69 | 144 | 4.0 | 6.0 | 0.00 | 0.00 | 0.00 | 60 | 1014.2 |
| 20260501193106 | 69 | 180 | 4.0 | 7.0 | 0.00 | 0.00 | 0.00 | 60 | 1014.2 |
| 20260501192021 | 69 | 212 | 5.0 | 7.0 | 0.00 | 0.00 | 0.00 | 60 | 1014.2 |
| 20260501191029 | 68 | 121 | 3.0 | 5.0 | 0.00 | 0.00 | 0.00 | 61 | 1014.2 |
| 20260501190036 | 67 | 165 | 4.0 | 6.0 | 0.00 | 0.00 | 0.00 | 63 | 1014.2 |
| 20260501185025 | 68 | 168 | 4.0 | 6.0 | 0.00 | 0.00 | 0.00 | 62 | 1014.2 |
| 20260501184053 | 66 | 225 | 4.0 | 7.0 | 0.00 | 0.00 | 0.00 | 64 | 1014.2 |
| 20260501183043 | 65 | 173 | 5.0 | 7.0 | 0.00 | 0.00 | 0.00 | 66 | 1014.2 |
| 20260501182052 | 65 | 167 | 3.0 | 4.0 | 0.00 | 0.00 | 0.00 | 65 | 1014.2 |
| 20260501181022 | 64 | 192 | 3.0 | 7.0 | 0.00 | 0.00 | 0.00 | 67 | 1014.2 |
| 20260501180028 | 64 | 194 | 6.0 | 9.0 | 0.00 | 0.00 | 0.00 | 66 | 1014.2 |